Regional Weather Roundup
Issued by NWS

Home | Current Version | Previous Version | Text Only | Print | Product List | Glossary Off
Versions: 1 2 3 4 5 6 7 8 9 10 11 12 13 14 15 16 17 18 19 20 21 22 23 24 25 26 27 28 29 30 31 32 33 34 35 36 37 38 39 40 41 42 43 44 45 46 47 48 49 50

000
ASUS43 KLOT 251909
RWRIL

ILLINOIS REGIONAL WEATHER ROUNDUP
NATIONAL WEATHER SERVICE CHICAGO/ROMEOVILLE IL
200 PM CDT FRI MAY 25 2018

NOTE: "FAIR" INDICATES FEW OR NO CLOUDS BELOW 12,000 FEET WITH NO
SIGNIFICANT WEATHER AND/OR OBSTRUCTIONS TO VISIBILITY.

* THESE STATIONS ARE NOT UNDER NWS QUALITY CONTROL. THEY ALSO MAY NOT
  REPORT WEATHER SUCH AS PRECIPITATION OR FOG.

ILZ001-002-007-009-015-016-024-252000-
NORTHWEST ILLINOIS

CITY           SKY/WX    TMP DP  RH WIND       PRES   REMARKS
MOLINE         PTSUNNY   84  65  52 S5        29.83F HX  86
STERLING*        N/A    N/A N/A N/A MISG        N/A  THUNDER
SAVANNA*       FAIR      83  67  59 SW8       29.84F HX  85
$$

ILZ003-004-008-010-011-017-018-252000-
NORTH CENTRAL ILLINOIS

CITY           SKY/WX    TMP DP  RH WIND       PRES   REMARKS
ROCKFORD       CLOUDY    88  59  37 SW6       29.85F HX  87
FREEPORT*      FAIR      83  63  49 SW10      29.86F HX  84
ROCHELLE*      FAIR      86  60  40 S10G17    29.85F HX  86
DE KALB*       FAIR      86  60  42 SW12      29.87F HX  86
PERU*          FAIR      90  62  38 SW8       29.86F HX  90
$$

ILZ005-006-012>014-019>023-252000-
NORTHEAST ILLINOIS

CITY           SKY/WX    TMP DP  RH WIND       PRES   REMARKS
CHICAGO-OHARE  PTSUNNY   88  57  34 SW12      29.85F HX  87
CHICAGO-MIDWAY PTSUNNY   88  58  36 S9G20     29.86F HX  87
AURORA         FAIR      86  60  41 SW12      29.86F HX  86
LANSING*       FAIR      85  63  46 S6        29.88F HX  86
JOLIET*        FAIR      89  58  35 SW7       29.86F HX  87
WAUKEGAN       FAIR      86  62  44 SW9       29.85F HX  86
DUPAGE AIRPORT FAIR      86  62  44 S7G18     29.86F HX  86
KANKAKEE*      PTSUNNY   88  56  33 SW9       29.87F HX  87
WHEELING       FAIR      88  59  37 SW13      29.87F HX  87
MORRIS*        FAIR      88  56  33 SW6       29.84F HX  86
ROMEOVILLE*    FAIR      87  58  37 S8        29.86F HX  86
NORTHERLY ISL    N/A     86  52  30 W5          N/A  HX  84
$$

LMZ740>746-252000-
SOUTHERN LAKE MICHIGAN

STATION/POSITION SKY/WX   TEMP    WIND        PRES    VSBY  WAVE
                          AIR SEA DIR/SP/G                  HT/PER
                          (F)     (DEG/KT/KT) (MB)    (MI)  (FT/S)
SOUTHERN BUOY              50 39  170/  6/  8 1012.3F         0
WILMETTE HARBOR            65 57  110/  8/ 10   N/A           1
HARRISON CRIB              81     140/ 10/ 13   N/A
BURNHAM HARBOR             86     200/ 12       N/A
CALUMET HARBOR             85     200/  8/ 11 1011.2F
BURNS HARBOR               74      10/  5/  6 1012.9F
MICHIGAN CITY              82     330/  4/  4   N/A
MICHIGAN CITY 6N           75 66   80/  4/  4   N/A           0
ST. JOSEPH                 73 64  100/  2/  2 1012.2          0
$$

ILZ025>027-034>036-040-047-049-050-058-095>099-252000-
WEST-CENTRAL ILLINOIS

CITY           SKY/WX    TMP DP  RH WIND       PRES   REMARKS
QUINCY         CLOUDY    81  70  69 W9        29.86F HX  84
GALESBURG*     TSTM      71  66  84 NE16      29.89F
MACOMB*        MOSUNNY   79  72  79 E7        29.88F HX  82
JACKSONVILLE*  CLOUDY    85  67  53 S10G17    29.85F HX  88
PITTSFIELD*    CLOUDY    85  69  59 S10       29.86F HX  88
$$

ILZ028>032-037-038-041>044-048-051>054-059>061-252000-
CENTRAL ILLINOIS

CITY           SKY/WX    TMP DP  RH WIND       PRES   REMARKS
PONTIAC        FAIR      90  58  34 S5G10     29.86F HX  88
BLOOMINGTON    FAIR      86  59  39 S15       29.87F HX  85
DECATUR        FAIR      87  59  38 S7G21     29.88F HX  86
PEORIA         CLOUDY    78  66  66 W10G20    29.87F THUNDER HX  80
LACON*         FAIR      83  64  51 SW7       29.85F HX  85
LINCOLN*       FAIR      90  64  41 S9        29.86F HX  91
SPRINGFIELD    PTSUNNY   88  66  48 S12       29.86F HX  90
TAYLORVILLE    FAIR      86  63  45 S13       29.87F HX  87
$$

ILZ033-039-045-046-055>057-062-063-252000-
EAST-CENTRAL ILLINOIS

CITY           SKY/WX    TMP DP  RH WIND       PRES   REMARKS
CHAMPAIGN      FAIR      90  55  30 S14G20    29.88F HX  88
DANVILLE*      FAIR      87  57  36 S6        29.87F HX  86
RANTOUL*       FAIR      90  58  34 S9        29.88F HX  88
MATTOON        FAIR      86  62  44 S10       29.88F HX  86
PARIS*         FAIR      87  60  40 S10       29.91F HX  86
$$

ILZ079-100>102-252000-
SOUTHWEST ILLINOIS

CITY           SKY/WX    TMP DP  RH WIND       PRES   REMARKS
ALTON          PTSUNNY   86  70  58 S13       29.87F HX  90
BELLEVILLE     MOSUNNY   87  68  52 SW10      29.86F THUNDER HX  90
CAHOKIA*       LGT RAIN  76  67  73 S10G18    29.88F
SPARTA*        MOSUNNY   86  71  61 SW8       29.89F HX  91
$$

ILZ064>066-069>071-074>076-080>082-084>086-088>090-092>094-252000-
SOUTH-CENTRAL ILLINOIS

CITY           SKY/WX    TMP DP  RH WIND       PRES   REMARKS
CARBONDALE     FAIR      86  69  56 SW8       29.89F HX  90
CAIRO*         CLOUDY    84  69  60 SE5       29.90F HX  88
EFFINGHAM*     FAIR      87  62  42 SE7       29.91F HX  87
MARION         PTSUNNY   84  70  61 S12       29.91F HX  88
MT. VERNON     CLOUDY    88  68  51 SW9       29.89F HX  91
CENTRALIA*     MOSUNNY   87  67  51 S7        29.88F HX  90
SALEM*         FAIR      88  64  43 S8        29.89F HX  89
METROPOLIS*    FAIR      71  69  93 SE7       29.94F
$$

ILZ067-068-072-073-078-083-087-091-252000-
SOUTHEAST ILLINOIS

CITY           SKY/WX    TMP DP  RH WIND       PRES   REMARKS
LAWRENCEVILLE  FAIR      90  51  26 SE6       29.90F HX  87
FLORA*         FAIR      90  64  41 SW9       29.90F HX  91
FAIRFIELD*     FAIR      87  66  49 S9        29.89F HX  89
HARRISBURG*    FAIR      82  71  70 SE7       29.91F HX  86
ROBINSON*      FAIR      87  59  38 S8        29.91F HX  86
CARMI*         FAIR      86  70  59 W9        29.89F HX  91
$$

ABBREVIATIONS USED IN REMARKS
   TC - TEMPERATURE IN CELSIUS
  WCI - WIND CHILL INDEX
   HX - HEAT INDEX
  VSB - VISIBILITY
$$





USA.gov is the U.S. government's official web portal to all federal, state and local government web resources and services.